{"data":{"norad_id":45152,"epoch":"2026-05-25T03:58:10.703424Z","epoch_age_seconds":59989,"freshness":"FRESH","line1":"1 45152U 20008X   26145.16540166  .00000602  00000+0  16863-2 0  9997","line2":"2 45152  87.8858  40.8479 0001886  75.6662 284.4675 13.10412250305182","mean_motion":13.1041225,"eccentricity":0.0001886,"inclination_deg":87.8858,"raan_deg":40.8479,"arg_perigee_deg":75.6662,"mean_anomaly_deg":284.4675,"bstar":0.0016863,"rev_number":30518,"period_min":109.88908261503,"perigee_km":1220.1313827789,"apogee_km":1222.9979902551,"semimajor_km":7599.701686517,"source":"CELESTRAK","updated_at":"2026-05-25T13:38:22.337199Z"}}